Cloud_Cover
2 0 0 2 5 5 7 11 41 87 100 100 100 100 69 100 100 100 42 59 68 78 95 93 83 100 86 50 5 29 19 5 15 6 55 55 89 30 42 99 62 78 9
1 0 0 0 6 2 0 0 0 5 46 8 84 100 100 100 100 100 100 100 92 86 52 13 5 5 35 5 5 5 5 5 6 6 11 10 6 10 12 65 64 30 5
0 0 0 0 0 0 0 4 0 0 0 5 4 0 5 4 1 2 4 0 7 6 5 0 29 3 3 5 5 7 43 70 100 94 6 7 26 40 32 49 7 5 6
0 0 0 0 0 0 3 3 6 0 0 2 5 0 0 1 0 5 4 12 13 5 21 100 54 9 18 47 40 88 89 100 100 95 90 28 5 31 8 40 16 12 5
0 0 0 2 0 0 2 0 1 0 0 0 0 0 0 5 2 0 2 1 8 5 79 89 51 27 47 82 100 100 100 100 91 100 99 88 71 8 9 96 35 18 7
0 0 0 2 0 0 0 2 3 0 1 4 2 1 0 5 0 2 0 34 5 5 6 5 6 5 6 58 95 100 100 100 100 100 100 100 97 11 22 6 6 20 11
0 0 0 0 1 2 1 0 2 0 1 1 13 1 5 4 1 2 0 0 1 5 39 36 69 35 73 100 100 100 100 100 100 100 100 98 64 98 10 15 5 7 10
0 0 0 0 0 0 0 5 6 25 16 1 3 13 0 1 7 3 0 0 0 0 0 0 0 0 5 12 65 100 100 100 100 100 100 91 58 68 92 69 42 5 76
0 0 0 0 0 1 5 54 98 6 2 0 0 0 0 0 0 0 14 10 2 4 1 0 2 0 0 0 5 93 99 100 100 100 97 96 52 97 99 100 33 34 4
0 0 0 0 0 0 0 5 0 5 2 0 0 2 4 0 0 4 1 51 79 0 0 0 5 5 37 0 37 100 100 100 100 100 75 20 100 100 100 44 94 10 2
0 0 0 0 0 0 0 0 0 0 1 0 0 5 31 0 1 2 12 13 4 0 2 4 4 58 12 4 38 100 100 100 100 100 82 100 100 98 40 9 28 3 5
0 0 0 0 0 0 0 0 0 0 0 4 0 5 5 0 5 44 46 6 5 2 4 0 82 100 96 91 90 87 52 83 100 86 100 100 100 100 79 38 3 0 0
0 0 0 0 0 0 0 0 0 89 45 30 2 0 3 0 4 44 92 97 6 5 2 0 6 98 37 6 98 98 98 32 36 99 100 100 99 17 10 6 13 0 1
0 0 0 1 0 0 0 0 4 74 99 3 3 0 41 0 1 5 1 4 6 0 0 0 0 73 100 100 29 8 99 14 31 80 100 100 99 5 5 1 0 0 2
0 0 0 1 0 0 0 0 0 28 4 0 0 73 0 0 0 0 1 5 0 0 0 0 0 3 88 77 17 9 55 23 70 100 85 25 2 1 0 0 0 4 5
0 0 0 0 0 0 0 0 66 97 5 3 0 0 0 0 0 0 0 2 0 2 0 0 0 0 1 4 5 42 94 79 63 28 5 0 0 0 0 4 3 5 80
0 0 0 0 0 0 1 2 15 100 12 25 0 3 0 0 0 0 0 15 36 8 0 0 0 0 0 0 5 4 2 0 1 0 0 0 2 5 5 5 69 76 54
0 0 0 0 0 0 0 1 4 29 90 3 0 0 0 2 0 0 0 0 4 5 22 0 0 0 0 0 1 0 0 0 0 0 0 0 0 5 5 5 30 28 59
0 0 4 0 0 0 0 0 1 33 36 4 10 7 2 0 0 3 0 0 0 0 0 0 0 0 0 0 2 0 0 0 0 0 0 0 1 4 7 5 5 24 15
0 0 0 0 0 0 0 0 5 5 100 92 5 30 4 0 0 0 0 1 28 0 0 2 2 0 0 0 0 0 0 0 0 2 5 3 5 5 5 5 21 20 6
0 0 0 0 0 0 0 0 9 61 71 63 94 37 0 0 20 0 0 0 0 0 0 0 5 0 0 0 0 0 0 0 0 0 0 0 3 4 5 5 5 5 5
0 0 0 0 0 0 0 0 1 76 97 5 99 6 0 0 4 0 0 5 0 1 0 0 0 0 0 0 6 0 0 0 0 0 0 1 0 3 5 0 5 4 5
4 11 0 0 0 0 0 0 3 6 4 5 96 67 1 0 2 5 2 100 52 3 0 0 0 0 0 18 18 0 0 0 0 0 0 3 0 5 5 5 5 5 4
0 0 0 4 2 0 0 0 0 5 7 72 80 86 43 6 1 5 6 15 14 3 0 1 0 0 0 5 1 0 0 0 0 0 0 0 4 2 5 0 5 5 4
20 0 5 5 4 0 0 0 12 53 90 89 5 100 13 16 5 5 15 8 40 99 0 0 39 0 0 0 14 0 0 0 0 0 0 0 4 4 5 5 5 52 5
28 46 3 7 5 0 0 0 0 0 87 55 86 95 82 17 4 78 22 16 47 61 43 5 2 3 0 0 0 0 0 0 0 0 0 0 0 3 5 0 5 5 5